Location: Prairie State College
(41.5244°N, 87.6382°W)
Time: 12:58:09
(UTC-05:00)

Amateur Radio Satellites - All Passes

Search period start: 29 August 2016 12:28
Search period end: 30 August 2016 12:28
Location: Prairie State College, 41.5244°N, 87.6382°W

Satellite Date Start Highest point End Downlink Frequencies (MHz)
Time Altitude Azimuth
NANOSAT C BR1 29 Aug 12:32:05 12:35:32 24° 265° (W) 12:39:00 145.865
Gurwin Techsat 1B 29 Aug 12:39:20 12:42:30 16° 60° (ENE) 12:45:41 435.225
CUBEBUG 1 29 Aug 12:40:42 12:45:10 85° 103° (ESE) 12:49:34 437.445
VELOX 1 29 Aug 12:43:34 12:48:03 73° 102° (ESE) 12:52:29 145.980
SPROUT 29 Aug 12:49:33 12:53:40 43° 99° (E) 12:57:42 437.525
Oscar 19 29 Aug 12:51:02 12:55:50 41° 70° (ENE) 13:00:42 437.125/150
DX 1 29 Aug 12:54:26 12:58:49 63° 102° (ESE) 13:03:09 434.975-435.025
JAS-2 29 Aug 13:01:29 13:06:13 35° 264° (W) 13:11:16 435.910
ISS 29 Aug 13:01:32 13:04:04 20° 17° (NNE) 13:06:35 145.825
TISAT 1 29 Aug 13:03:30 13:05:18 12° 91° (E) 13:07:04 437.305
BUGSAT 1 29 Aug 13:04:28 13:08:01 26° 265° (W) 13:11:35 437.445
PCSat 29 Aug 13:17:29 13:21:42 22° 314° (NW) 13:25:56 145.827
AIST 2 29 Aug 13:18:32 13:21:54 24° 313° (NW) 13:25:18 435.215
RS-15 29 Aug 13:26:26 13:31:39 14° 266° (W) 13:36:51 29.354- 29.394
O/OREOS (USA 219) 29 Aug 13:26:41 13:30:59 47° 107° (ESE) 13:35:20 437.305
UKube-1 29 Aug 13:31:16 13:35:35 65° 286° (WNW) 13:39:52 .
AO-85 29 Aug 13:32:57 13:37:04 43° 51° (NE) 13:40:53 145.980
AISAT 29 Aug 13:33:11 13:37:09 32° 291° (WNW) 13:41:05 437.250
ESTCUBE 1 29 Aug 13:33:31 13:36:46 20° 295° (WNW) 13:40:00 437.505/2401.250
50 SAT 29 Aug 13:36:59 13:39:48 21° 291° (WNW) 13:42:38 437.505
Cosmos 2499 29 Aug 13:40:34 13:47:45 35° 287° (WNW) 13:54:32 435.465 / 435.565
AUBIESAT-1 29 Aug 13:47:39 13:49:12 12° 304° (NW) 13:50:43 437.475
GONETS M04 29 Aug 13:56:08 14:03:12 27° 294° (WNW) 14:10:22
AO-7 29 Aug 13:57:19 14:03:50 26° 54° (NE) 14:10:21 29.400- 29.500
ITAMSAT 1 29 Aug 14:09:47 14:14:20 32° 67° (ENE) 14:18:54 435.822/435.867
Gurwin Techsat 1B 29 Aug 14:16:33 14:21:51 71° 258° (WSW) 14:27:10 435.225
CUBEBUG 1 29 Aug 14:20:20 14:20:44 10° 300° (WNW) 14:21:07 437.445
VELOX 1 29 Aug 14:22:13 14:23:54 12° 299° (WNW) 14:25:35 145.980
SPROUT 29 Aug 14:26:26 14:29:15 17° 295° (WNW) 14:32:03 437.525
Oscar 19 29 Aug 14:31:09 14:35:18 24° 266° (W) 14:39:29 437.125/150
DX 1 29 Aug 14:32:24 14:34:27 13° 298° (WNW) 14:36:30 434.975-435.025
ITUPSAT 1 29 Aug 14:34:11 14:38:02 24° 95° (E) 14:41:53 437.325
TISAT 1 29 Aug 14:37:10 14:41:16 54° 287° (WNW) 14:45:21 437.305
ISS 29 Aug 14:37:36 14:40:54 87° 35° (NE) 14:44:11 145.825
SWISSCUBE 29 Aug 15:05:33 15:10:15 57° 101° (E) 15:14:56 437.505
O/OREOS (USA 219) 29 Aug 15:07:28 15:10:39 19° 305° (NW) 15:13:52 437.305
AO-85 29 Aug 15:14:21 15:17:05 17° 250° (WSW) 15:19:42 145.980
MOZHAYETS 4 29 Aug 15:20:57 15:21:46 10° 89° (E) 15:22:35
BEESAT 29 Aug 15:22:25 15:27:11 76° 102° (ESE) 15:31:57 436.000
AO-7 29 Aug 15:47:26 15:55:48 77° 253° (WSW) 16:04:12 29.400- 29.500
ITAMSAT 1 29 Aug 15:49:10 15:53:45 31° 263° (W) 15:58:21 435.822/435.867
YUBILEINY 29 Aug 15:56:13 16:02:38 22° 63° (ENE) 16:08:58 435.215
ITUPSAT 1 29 Aug 16:11:35 16:15:56 36° 291° (WNW) 16:20:17 437.325
ISS 29 Aug 16:16:11 16:16:53 10° 231° (SW) 16:17:35 145.825
BRITE-PL 29 Aug 16:29:17 16:32:31 17° 61° (ENE) 16:35:55 437.365/2234.400
KKS-1 29 Aug 16:34:10 16:38:31 48° 100° (E) 16:42:48 437.445
SWISSCUBE 29 Aug 16:44:36 16:47:35 17° 297° (WNW) 16:50:33 437.505
CUBESAT XI-V 29 Aug 16:46:02 16:47:24 11° 89° (E) 16:48:46 437.345
Cosmos 2504 29 Aug 16:49:24 16:52:21 13° 60° (ENE) 16:55:16 435.465 / 435.565
HORYU 2 29 Aug 16:54:13 16:58:39 68° 74° (ENE) 17:03:06 437.375
MOZHAYETS 4 29 Aug 16:54:52 16:59:26 75° 285° (WNW) 17:04:00
Cubesat XI-IV 29 Aug 16:55:12 16:58:22 16° 60° (ENE) 17:01:32 437.490
NOAA 15 29 Aug 16:59:46 17:03:45 22° 63° (ENE) 17:07:44 137.62
BEESAT 29 Aug 17:02:15 17:04:20 13° 300° (WNW) 17:06:25 436.000
STARS 29 Aug 17:04:20 17:08:37 49° 100° (E) 17:12:52 437.465
CUTE-I 29 Aug 17:05:39 17:09:25 20° 62° (ENE) 17:13:12 437.470
DOVE 4 29 Aug 17:29:08 17:31:59 15° 61° (ENE) 17:34:52 437.250
BEESAT 2 29 Aug 17:31:00 17:33:52 19° 44° (NE) 17:36:44 435.950
GOMX 1 29 Aug 17:31:09 17:35:38 31° 67° (ENE) 17:40:20 467.674
Cosmos 2491 29 Aug 17:33:51 17:41:51 43° 87° (E) 17:49:54 435.465 / 435.565
HO-68 29 Aug 17:42:10 17:44:06 11° 48° (NE) 17:46:01 435.675
BEESAT 3 29 Aug 17:44:14 17:48:01 41° 52° (NE) 17:51:46 437.485
LilacSat-2 29 Aug 17:45:30 17:48:58 33° 72° (ENE) 17:52:27 437.200
AO-7 29 Aug 17:45:44 17:49:48 14° 272° (W) 17:53:55 29.400- 29.500
YUBILEINY 29 Aug 17:51:44 18:00:31 82° 265° (W) 18:09:14 435.215
NOAA 18 29 Aug 18:01:43 18:07:08 57° 71° (ENE) 18:12:32 137.9125
BRITE-PL 29 Aug 18:05:31 18:10:21 63° 260° (W) 18:15:38 437.365/2234.400
KKS-1 29 Aug 18:11:48 18:14:41 17° 296° (WNW) 18:17:34 437.445
CUBESAT XI-V 29 Aug 18:20:34 18:25:17 75° 285° (WNW) 18:29:59 437.345
Cubesat XI-IV 29 Aug 18:32:30 18:37:50 72° 258° (WSW) 18:43:11 437.490
HORYU 2 29 Aug 18:34:19 18:35:39 11° 270° (W) 18:36:58 437.375
NOAA 15 29 Aug 18:38:06 18:43:10 49° 260° (W) 18:48:18 137.62
PCSat 29 Aug 18:39:33 18:40:50 11° 34° (NE) 18:42:07 145.827
Cosmos 2504 29 Aug 18:39:51 18:47:07 77° 81° (E) 18:54:17 435.465 / 435.565
STARS 29 Aug 18:41:51 18:44:35 16° 296° (WNW) 18:47:17 437.465
CUTE-I 29 Aug 18:43:48 18:49:01 56° 259° (W) 18:54:17 437.470
STRAND 1 29 Aug 18:56:49 18:59:29 14° 90° (E) 19:02:08 437.568
DOVE 4 29 Aug 19:03:46 19:08:57 79° 258° (WSW) 19:14:19 437.250
BEESAT 2 29 Aug 19:08:05 19:11:57 48° 242° (WSW) 19:15:48 435.950
GOMX 1 29 Aug 19:08:56 19:13:35 34° 265° (W) 19:18:29 467.674
SEEDS 29 Aug 19:12:13 19:15:01 18° 66° (ENE) 19:17:51 437.485
AIST 1 29 Aug 19:15:20 19:17:57 15° 70° (ENE) 19:20:33
LilacSat-2 29 Aug 19:20:52 19:23:22 17° 267° (W) 19:25:52 437.200
BEESAT 3 29 Aug 19:22:42 19:25:22 18° 249° (WSW) 19:28:02 437.485
HO-68 29 Aug 19:23:18 19:30:17 56° 68° (ENE) 19:37:17 435.675
CINEMA 3 29 Aug 19:28:47 19:33:41 56° 73° (ENE) 19:38:32 145.822/145.860
UWE-3 29 Aug 19:29:02 19:30:04 11° 62° (ENE) 19:31:05 435.000/436.395/437.385
Cosmos 2491 29 Aug 19:30:30 19:38:38 42° 287° (WNW) 19:46:53 435.465 / 435.565
CUBEBUG 2 29 Aug 19:33:43 19:36:55 19° 66° (ENE) 19:40:03 437.445
CANX-2 29 Aug 19:36:49 19:40:54 54° 74° (ENE) 19:45:01 2200.000
AAUSAT CUBESAT 2 29 Aug 19:36:55 19:39:43 18° 66° (ENE) 19:42:32 437.432
CUTE 1.7 + AOD 2 29 Aug 19:42:28 19:46:33 54° 74° (ENE) 19:50:39 437.475
NOAA 18 29 Aug 19:44:14 19:48:08 19° 267° (W) 19:52:02 137.9125
COMPASS 1 29 Aug 19:46:21 19:49:54 28° 70° (ENE) 19:53:28 437.405
YUBILEINY 29 Aug 19:51:14 19:55:50 16° 285° (WNW) 20:00:26 435.215
AIST 2 29 Aug 20:00:38 20:04:15 27° 48° (NE) 20:07:51 435.215
PCSat 29 Aug 20:20:15 20:25:34 51° 56° (NE) 20:30:49 145.827
STRAND 1 29 Aug 20:34:03 20:39:08 68° 287° (WNW) 20:44:12 437.568
Cosmos 2504 29 Aug 20:35:10 20:39:31 17° 280° (W) 20:43:51 435.465 / 435.565
Oscar 11 29 Aug 20:37:58 20:41:52 34° 70° (ENE) 20:45:46 145.826/435.025
SEEDS 29 Aug 20:46:33 20:50:26 38° 262° (W) 20:54:21 437.485
FUNcube-1 29 Aug 20:48:17 20:52:27 42° 72° (ENE) 20:56:32 145.935
AIST 1 29 Aug 20:51:36 20:55:50 47° 267° (W) 21:00:02
DELFI C3 29 Aug 20:56:13 20:59:13 21° 68° (ENE) 21:02:14 145.870
UWE-3 29 Aug 21:01:19 21:05:53 82° 257° (WSW) 21:10:22 435.000/436.395/437.385
CINEMA 3 29 Aug 21:07:53 21:11:06 17° 269° (W) 21:14:18 145.822/145.860
CUBEBUG 2 29 Aug 21:08:42 21:13:12 46° 261° (W) 21:17:36 437.445
ZACube-1 29 Aug 21:10:46 21:15:13 81° 76° (ENE) 21:19:35 437.345
AAUSAT CUBESAT 2 29 Aug 21:11:06 21:14:55 37° 262° (W) 21:18:45 437.432
HO-68 29 Aug 21:12:18 21:18:19 28° 266° (W) 21:24:22 435.675
CANX-2 29 Aug 21:15:17 21:17:05 12° 270° (W) 21:18:53 2200.000
CUTE 1.7 + AOD 2 29 Aug 21:20:56 21:22:43 12° 270° (W) 21:24:31 437.475
COMPASS 1 29 Aug 21:22:10 21:25:27 23° 266° (W) 21:28:44 437.405
AUBIESAT-1 29 Aug 21:26:05 21:27:02 11° 55° (NE) 21:28:00 437.475
M-CUBED/EXP-1 PRIME 29 Aug 21:31:54 21:34:35 15° 57° (ENE) 21:37:15 437.505
HUMSAT D 29 Aug 21:37:33 21:41:13 31° 71° (ENE) 21:44:52 437.325/437.525
AIST 2 29 Aug 21:39:01 21:42:44 31° 245° (WSW) 21:46:26 435.215
Cosmos 2499 29 Aug 21:39:33 21:42:49 13° 61° (ENE) 21:46:05 435.465 / 435.565
PRISM 29 Aug 21:49:48 21:54:01 84° 281° (W) 21:58:11 437.425
O/OREOS (USA 219) 29 Aug 21:59:05 22:00:49 12° 50° (NE) 22:02:32 437.305
PCSat 29 Aug 22:04:26 22:08:34 23° 253° (WSW) 22:12:44 145.827
GONETS M04 29 Aug 22:07:24 22:15:20 35° 70° (ENE) 22:23:10
SO-50 29 Aug 22:09:35 22:12:39 17° 109° (ESE) 22:15:41 436.795
Oscar 11 29 Aug 22:14:51 22:18:05 20° 267° (W) 22:21:18 145.826/435.025
ANTELSAT 29 Aug 22:22:34 22:25:54 22° 94° (E) 22:29:12 437.575/2403.000
FUNcube-1 29 Aug 22:25:54 22:28:51 17° 267° (W) 22:31:46 145.935
DELFI C3 29 Aug 22:30:30 22:33:54 28° 264° (W) 22:37:21 145.870
50 SAT 29 Aug 22:42:25 22:43:42 12° 64° (ENE) 22:44:59 437.505
TIGRISAT 29 Aug 22:52:15 22:56:21 43° 99° (E) 23:00:23 435.000
UKube-1 29 Aug 22:53:16 22:54:23 11° 60° (ENE) 22:55:31 .
AISAT 29 Aug 22:54:39 22:58:08 23° 66° (ENE) 23:01:37 437.250
ESTCUBE 1 29 Aug 22:55:29 22:59:39 39° 70° (ENE) 23:03:51 437.505/2401.250
AUBIESAT-1 29 Aug 22:56:05 23:00:44 81° 69° (ENE) 23:05:21 437.475
M-CUBED/EXP-1 PRIME 29 Aug 23:03:50 23:08:31 71° 253° (WSW) 23:13:13 437.505
HUMSAT D 29 Aug 23:13:43 23:16:53 21° 266° (W) 23:20:02 437.325/437.525
UNISAT 6 29 Aug 23:21:35 23:25:53 80° 285° (WNW) 23:30:08 437.425
RS-15 29 Aug 23:24:39 23:32:23 21° 98° (E) 23:40:18 29.354- 29.394
QB50P1 29 Aug 23:26:31 23:29:02 15° 92° (E) 23:31:32 145.935-145.965
Cosmos 2499 29 Aug 23:30:02 23:37:07 82° 81° (E) 23:44:20 435.465 / 435.565
CUSAT 1 29 Aug 23:31:15 23:34:14 86° 278° (W) 23:38:04 437.405
O/OREOS (USA 219) 29 Aug 23:36:16 23:40:53 87° 250° (WSW) 23:45:29 437.305
POPSAT HIP 1 29 Aug 23:36:19 23:39:24 19° 94° (E) 23:42:27 437.405
CUBEBUG 1 29 Aug 23:36:20 23:40:42 71° 75° (ENE) 23:45:08 437.445
VELOX 1 29 Aug 23:40:37 23:45:01 65° 74° (ENE) 23:49:27 145.980
SPROUT 29 Aug 23:43:06 23:46:58 34° 70° (ENE) 23:50:52 437.525
SO-50 29 Aug 23:47:50 23:52:38 62° 306° (NW) 23:57:26 436.795
DX 1 29 Aug 23:49:46 23:54:01 55° 73° (ENE) 23:58:20 434.975-435.025
TISAT 1 29 Aug 23:56:32 23:57:32 11° 61° (ENE) 23:58:32 437.305
ANTELSAT 29 Aug 23:58:52 00:02:39 31° 291° (WNW) 00:06:25 437.575/2403.000
DUCHIFAT 1 30 Aug 00:00:33 00:04:20 32° 97° (E) 00:08:05 145.980
GONETS M04 30 Aug 00:03:57 00:12:27 54° 270° (W) 00:20:55
QB50P2 30 Aug 00:06:35 00:10:40 46° 99° (E) 00:14:43 145.880/145.840
JAS-2 30 Aug 00:08:01 00:14:14 33° 95° (E) 00:20:54 435.910
POLYITAN 1 30 Aug 00:09:06 00:13:10 47° 99° (E) 00:17:12 437.675
50 SAT 30 Aug 00:13:25 00:16:51 45° 260° (W) 00:20:19 437.505
NANOSAT C BR1 30 Aug 00:15:22 00:19:29 51° 100° (E) 00:23:33 145.865
UKube-1 30 Aug 00:25:28 00:29:47 77° 256° (WSW) 00:34:09 .
TIGRISAT 30 Aug 00:29:58 00:32:42 17° 295° (WNW) 00:35:24 435.000
AISAT 30 Aug 00:30:19 00:34:23 35° 262° (W) 00:38:30 437.250
ESTCUBE 1 30 Aug 00:33:21 00:36:36 20° 267° (W) 00:39:52 437.505/2401.250
AUBIESAT-1 30 Aug 00:34:22 00:35:37 11° 266° (W) 00:36:52 437.475
PHONESAT 2.4 30 Aug 00:39:13 00:41:28 19° 154° (SSE) 00:43:43 2401.200-2431.200
BUGSAT 1 30 Aug 00:45:28 00:49:25 43° 99° (E) 00:53:17 437.445
DANDE 30 Aug 00:52:30 00:54:38 22° 288° (WNW) 00:56:59 436.750
BEESAT 30 Aug 00:55:31 00:56:27 11° 59° (ENE) 00:57:23 436.000
QB50P1 30 Aug 01:01:01 01:05:03 44° 288° (WNW) 01:09:01 145.935-145.965
Oscar 19 30 Aug 01:03:54 01:06:35 14° 90° (E) 01:09:16 437.125/150
POPSAT HIP 1 30 Aug 01:11:26 01:15:16 34° 290° (WNW) 01:19:04 437.405
CUBEBUG 1 30 Aug 01:16:36 01:17:28 10° 271° (W) 01:18:22 437.445
SPROUT 30 Aug 01:19:41 01:22:58 21° 266° (W) 01:26:17 437.525
VELOX 1 30 Aug 01:20:17 01:21:54 12° 270° (W) 01:23:33 145.980
Cosmos 2499 30 Aug 01:25:23 01:29:15 16° 281° (W) 01:33:09 435.465 / 435.565
TISAT 1 30 Aug 01:28:19 01:32:34 75° 258° (WSW) 01:36:50 437.305
DX 1 30 Aug 01:28:23 01:30:33 13° 269° (W) 01:32:43 434.975-435.025
RS-15 30 Aug 01:31:20 01:42:51 84° 120° (ESE) 01:55:04 29.354- 29.394
SO-50 30 Aug 01:32:09 01:34:05 12° 326° (NW) 01:36:01 436.795
DUCHIFAT 1 30 Aug 01:36:38 01:39:50 21° 293° (WNW) 01:43:00 145.980
ITUPSAT 1 30 Aug 01:41:02 01:45:06 29° 67° (ENE) 01:49:11 437.325
QB50P2 30 Aug 01:43:32 01:46:05 16° 296° (WNW) 01:48:38 145.880/145.840
POLYITAN 1 30 Aug 01:46:04 01:48:35 16° 296° (WNW) 01:51:06 437.675
NANOSAT C BR1 30 Aug 01:52:29 01:54:46 14° 296° (WNW) 01:57:02 145.865
JAS-2 30 Aug 01:52:43 01:59:21 51° 290° (WNW) 02:06:37 435.910
SWISSCUBE 30 Aug 02:11:56 02:16:38 67° 74° (ENE) 02:21:22 437.505
PHONESAT 2.4 30 Aug 02:14:31 02:17:29 58° 169° (S) 02:20:27 2401.200-2431.200
BUGSAT 1 30 Aug 02:21:52 02:24:25 16° 296° (WNW) 02:26:57 437.445
MOZHAYETS 4 30 Aug 02:23:09 02:24:35 11° 61° (ENE) 02:26:01
ITAMSAT 1 30 Aug 02:25:40 02:26:02 10° 88° (E) 02:26:24 435.822/435.867
BEESAT 30 Aug 02:28:43 02:33:28 88° 73° (ENE) 02:38:15 436.000
Gurwin Techsat 1B 30 Aug 02:32:40 02:37:46 45° 99° (E) 02:42:51 435.225
Oscar 19 30 Aug 02:41:13 02:46:25 70° 286° (WNW) 02:51:34 437.125/150
ITUPSAT 1 30 Aug 03:18:42 03:22:51 30° 264° (W) 03:27:03 437.325
KKS-1 30 Aug 03:32:05 03:36:21 45° 71° (ENE) 03:40:38 437.445
Cosmos 2491 30 Aug 03:44:14 03:50:40 22° 63° (ENE) 03:57:01 435.465 / 435.565
RS-15 30 Aug 03:46:17 03:56:54 37° 327° (NNW) 04:07:58 29.354- 29.394
AO-85 30 Aug 03:47:57 03:51:21 17° 109° (ESE) 03:54:40 145.980
AO-7 30 Aug 03:49:18 03:56:48 36° 98° (E) 04:04:13 29.400- 29.500
CUBESAT XI-V 30 Aug 03:49:49 03:51:34 12° 61° (ENE) 03:53:20 437.345
PHONESAT 2.4 30 Aug 03:50:46 03:53:45 68° 185° (S) 03:56:44 2401.200-2431.200
SWISSCUBE 30 Aug 03:52:46 03:54:52 13° 270° (W) 03:56:59 437.505
MOZHAYETS 4 30 Aug 03:56:31 04:01:05 79° 258° (WSW) 04:05:40
STARS 30 Aug 04:00:49 04:05:02 45° 72° (ENE) 04:09:16 437.465
ITAMSAT 1 30 Aug 04:00:58 04:06:11 89° 104° (ESE) 04:11:22 435.822/435.867
Gurwin Techsat 1B 30 Aug 04:13:16 04:17:26 24° 296° (WNW) 04:21:36 435.225
HORYU 2 30 Aug 04:46:57 04:48:48 12° 91° (E) 04:50:38 437.375
YUBILEINY 30 Aug 04:58:27 05:05:02 24° 80° (E) 05:11:36 435.215
KKS-1 30 Aug 05:10:10 05:13:07 17° 267° (W) 05:16:06 437.445
CUBESAT XI-V 30 Aug 05:23:42 05:28:18 77° 258° (WSW) 05:32:57 437.345
AO-85 30 Aug 05:26:07 05:31:24 67° 305° (NW) 05:36:23 145.980
PHONESAT 2.4 30 Aug 05:27:16 05:29:52 27° 202° (SSW) 05:32:27 2401.200-2431.200
Cosmos 2504 30 Aug 05:31:44 05:33:24 11° 75° (ENE) 05:35:01 435.465 / 435.565
STARS 30 Aug 05:38:42 05:41:36 17° 267° (W) 05:44:31 437.465
Cosmos 2491 30 Aug 05:39:45 05:48:37 84° 264° (W) 05:57:28 435.465 / 435.565
AO-7 30 Aug 05:41:49 05:49:45 52° 296° (WNW) 05:57:40 29.400- 29.500
ITAMSAT 1 30 Aug 05:42:46 05:44:53 13° 302° (WNW) 05:47:00 435.822/435.867
RS-15 30 Aug 06:05:19 06:14:27 23° 1° (N) 06:23:44 29.354- 29.394
BRITE-PL 30 Aug 06:09:57 06:15:28 48° 98° (E) 06:20:47 437.365/2234.400
STRAND 1 30 Aug 06:12:27 06:16:18 22° 64° (ENE) 06:20:09 437.568
HORYU 2 30 Aug 06:21:22 06:25:44 60° 286° (WNW) 06:30:04 437.375
NOAA 18 30 Aug 06:24:19 06:28:37 23° 94° (E) 06:32:52 137.9125
SO-50 30 Aug 06:39:43 06:42:58 18° 40° (NE) 06:46:09 436.795
Cubesat XI-IV 30 Aug 06:49:40 06:54:45 45° 99° (E) 06:59:49 437.490
YUBILEINY 30 Aug 06:52:05 07:00:55 73° 280° (W) 07:09:46 435.215
LilacSat-2 30 Aug 06:52:30 06:56:10 49° 99° (E) 06:59:50 437.200
NOAA 15 30 Aug 06:52:46 06:58:03 62° 102° (ESE) 07:03:19 137.62
CUTE-I 30 Aug 07:00:32 07:05:47 57° 101° (E) 07:11:00 437.470
DOVE 4 30 Aug 07:03:31 07:07:52 30° 94° (E) 07:11:59 437.250
GOMX 1 30 Aug 07:10:13 07:15:38 79° 102° (ESE) 07:20:43 467.674
AO-85 30 Aug 07:10:14 07:12:43 13° 323° (NW) 07:15:08 145.980
Cosmos 2504 30 Aug 07:17:02 07:25:20 67° 93° (E) 07:33:04 435.465 / 435.565
ISS 30 Aug 07:17:47 07:20:29 24° 134° (SE) 07:23:12 145.825
CINEMA 3 30 Aug 07:25:58 07:27:37 12° 88° (E) 07:29:13 145.822/145.860
AO-7 30 Aug 07:37:44 07:40:37 12° 318° (NW) 07:43:30 29.400- 29.500
Cosmos 2491 30 Aug 07:39:08 07:44:01 16° 284° (WNW) 07:48:55 435.465 / 435.565
BRITE-PL 30 Aug 07:48:58 07:53:34 26° 295° (WNW) 07:58:04 437.365/2234.400
STRAND 1 30 Aug 07:50:15 07:55:09 46° 261° (W) 08:00:04 437.568
NOAA 18 30 Aug 08:04:15 08:09:29 47° 291° (WNW) 08:14:40 137.9125
SO-50 30 Aug 08:19:21 08:23:55 66° 239° (WSW) 08:28:20 436.795
RS-15 30 Aug 08:20:39 08:31:56 38° 35° (NE) 08:43:06 29.354- 29.394
CUSAT 1 30 Aug 08:21:23 08:24:32 13° 64° (ENE) 08:27:53 437.405
LilacSat-2 30 Aug 08:28:34 08:30:02 12° 296° (WNW) 08:31:31 437.200
SEEDS 30 Aug 08:30:03 08:33:51 32° 97° (E) 08:37:38 437.485
Cubesat XI-IV 30 Aug 08:30:20 08:34:32 24° 296° (WNW) 08:38:44 437.490
NOAA 15 30 Aug 08:33:45 08:37:19 19° 299° (WNW) 08:40:53 137.62
HO-68 30 Aug 08:38:12 08:45:15 58° 102° (ESE) 08:52:15 435.675
PRISM 30 Aug 08:38:59 08:43:02 69° 75° (ENE) 08:47:09 437.425
DOVE 4 30 Aug 08:41:09 08:45:30 30° 293° (WNW) 08:49:38 437.250
CUTE-I 30 Aug 08:41:39 08:45:22 20° 298° (WNW) 08:49:05 437.470
GOMX 1 30 Aug 08:50:02 08:52:56 15° 300° (WNW) 08:55:45 467.674
UWE-3 30 Aug 08:51:54 08:54:48 18° 93° (E) 08:57:39 435.000/436.395/437.385
AAUSAT CUBESAT 2 30 Aug 08:52:59 08:56:43 31° 96° (E) 09:00:26 437.432
ISS 30 Aug 08:53:40 08:56:49 42° 331° (NNW) 08:59:58 145.825
YUBILEINY 30 Aug 08:54:50 08:59:28 15° 302° (WNW) 09:04:08 435.215
CANX-2 30 Aug 08:57:09 09:01:24 74° 284° (WNW) 09:05:37 2200.000
CUBEBUG 2 30 Aug 08:59:38 09:03:28 33° 97° (E) 09:07:14 437.445
BEESAT 2 30 Aug 09:00:13 09:03:32 26° 114° (ESE) 09:06:52 435.950
ZACube-1 30 Aug 09:00:29 09:02:43 14° 91° (E) 09:04:57 437.345
CINEMA 3 30 Aug 09:00:48 09:05:14 61° 286° (WNW) 09:09:27 145.822/145.860
CUTE 1.7 + AOD 2 30 Aug 09:02:40 09:06:55 75° 284° (WNW) 09:11:09 437.475
COMPASS 1 30 Aug 09:03:40 09:07:46 53° 100° (E) 09:11:52 437.405
BEESAT 3 30 Aug 09:11:48 09:15:41 72° 120° (ESE) 09:19:37 437.485
Cosmos 2504 30 Aug 09:12:39 09:19:14 26° 291° (WNW) 09:25:32 435.465 / 435.565
AIST 1 30 Aug 09:20:23 09:24:44 82° 276° (W) 09:29:10
ANTELSAT 30 Aug 09:21:30 09:24:59 22° 67° (ENE) 09:28:26 437.575/2403.000
DANDE 30 Aug 09:43:34 09:47:57 22° 72° (ENE) 09:53:07 436.750
TIGRISAT 30 Aug 09:50:39 09:54:56 41° 72° (ENE) 09:59:09 435.000
Oscar 11 30 Aug 10:00:25 10:04:45 71° 101° (E) 10:09:03 145.826/435.025
CUSAT 1 30 Aug 10:00:37 10:07:20 70° 79° (E) 10:15:11 437.405
SEEDS 30 Aug 10:06:07 10:09:22 22° 292° (WNW) 10:12:36 437.485
DELFI C3 30 Aug 10:07:19 10:10:59 33° 97° (E) 10:14:37 145.870
FUNcube-1 30 Aug 10:11:58 10:16:07 88° 100° (E) 10:20:15 145.935
UNISAT 6 30 Aug 10:19:55 10:24:31 89° 67° (ENE) 10:29:02 437.425
QB50P1 30 Aug 10:19:55 10:21:54 13° 63° (ENE) 10:23:55 145.935-145.965
Cosmos 2499 30 Aug 10:20:38 10:22:03 11° 76° (ENE) 10:23:26 435.465 / 435.565
JAS-2 30 Aug 10:26:01 10:27:00 10° 53° (NE) 10:28:01 435.910
HO-68 30 Aug 10:26:36 10:32:32 29° 300° (WNW) 10:38:27 435.675
UWE-3 30 Aug 10:27:34 10:31:23 35° 289° (WNW) 10:35:09 435.000/436.395/437.385
AAUSAT CUBESAT 2 30 Aug 10:28:48 10:32:01 22° 292° (WNW) 10:35:14 437.432
POPSAT HIP 1 30 Aug 10:29:28 10:32:08 16° 64° (ENE) 10:34:48 437.405
ISS 30 Aug 10:31:50 10:33:56 16° 351° (N) 10:36:02 145.825
RS-15 30 Aug 10:33:27 10:45:51 81° 242° (WSW) 10:57:59 29.354- 29.394
ZACube-1 30 Aug 10:35:18 10:39:17 45° 287° (WNW) 10:43:14 437.345
CUBEBUG 2 30 Aug 10:36:47 10:39:52 20° 294° (WNW) 10:42:55 437.445
BEESAT 2 30 Aug 10:37:47 10:41:15 29° 311° (NW) 10:44:46 435.950
COMPASS 1 30 Aug 10:40:42 10:42:53 14° 296° (WNW) 10:45:03 437.405
BEESAT 3 30 Aug 10:51:44 10:53:49 14° 319° (NW) 10:55:55 437.485
DUCHIFAT 1 30 Aug 10:52:38 10:56:08 25° 68° (ENE) 10:59:37 145.980
HUMSAT D 30 Aug 10:55:36 10:59:38 57° 100° (E) 11:03:41 437.325/437.525
ANTELSAT 30 Aug 10:57:14 11:01:29 37° 262° (W) 11:05:39 437.575/2403.000
QB50P2 30 Aug 10:59:11 11:03:05 35° 70° (ENE) 11:06:59 145.880/145.840
POLYITAN 1 30 Aug 11:01:40 11:05:35 36° 71° (ENE) 11:09:30 437.675
PCSat 30 Aug 11:01:59 11:07:06 45° 113° (ESE) 11:12:15 145.827
NANOSAT C BR1 30 Aug 11:07:24 11:11:21 39° 71° (ENE) 11:15:18 145.865
GONETS M04 30 Aug 11:08:49 11:16:40 39° 86° (E) 11:24:35
DANDE 30 Aug 11:25:07 11:30:49 65° 263° (W) 11:38:08 436.750
CUBEBUG 1 30 Aug 11:26:35 11:28:40 13° 90° (E) 11:30:43 437.445
TIGRISAT 30 Aug 11:28:28 11:31:45 19° 267° (W) 11:35:01 435.000
VELOX 1 30 Aug 11:32:40 11:34:24 12° 90° (E) 11:36:08 145.980
BUGSAT 1 30 Aug 11:35:06 11:38:52 31° 70° (ENE) 11:42:38 437.445
AIST 2 30 Aug 11:35:58 11:39:55 49° 118° (ESE) 11:43:55 435.215
Oscar 11 30 Aug 11:38:51 11:40:17 11° 298° (WNW) 11:41:44 145.826/435.025
50 SAT 30 Aug 11:42:41 11:44:29 13° 92° (E) 11:46:16 437.505
DELFI C3 30 Aug 11:42:43 11:45:35 19° 293° (WNW) 11:48:29 145.870
CUSAT 1 30 Aug 11:43:44 11:48:59 24° 272° (W) 11:54:47 437.405
QB50P1 30 Aug 11:52:58 11:57:11 60° 259° (W) 12:01:25 145.935-145.965
POPSAT HIP 1 30 Aug 12:03:25 12:07:32 46° 261° (W) 12:11:40 437.405
JAS-2 30 Aug 12:05:45 12:10:57 77° 74° (ENE) 12:16:36 435.910
Cosmos 2499 30 Aug 12:05:47 12:13:49 69° 94° (E) 12:21:15 435.465 / 435.565
ISS 30 Aug 12:09:11 12:11:22 16° 11° (N) 12:13:34 145.825
AUBIESAT-1 30 Aug 12:09:51 12:13:45 54° 105° (ESE) 12:17:21 437.475
UKube-1 30 Aug 12:13:27 12:16:20 17° 93° (E) 12:19:12 .
O/OREOS (USA 219) 30 Aug 12:14:07 12:14:17 10° 96° (E) 12:14:25 437.305
M-CUBED/EXP-1 PRIME 30 Aug 12:18:09 12:22:13 88° 102° (ESE) 12:25:56 437.505
AO-85 30 Aug 12:19:05 12:21:37 15° 38° (NE) 12:24:04 145.980
Gurwin Techsat 1B 30 Aug 12:19:28 12:20:04 10° 56° (NE) 12:20:41 435.225
